HYS1326 LROP-LRTR

Flight info

Callsign HYS1326
Flight time 0h 45m
Altitude 28000
Route SOKRU1K SOKRU DCT OXDOC DCT NEKUL NEKUL2A
Aircraft A320/M-SDE3FGHIRWY/LB1

Departure

Time 2026-04-22 18:09
Airport Bucharest Henri Coandă International Airport (LROP)

Arrival

Time 2026-04-22 18:55
Airport Timișoara Traian Vuia International Airport (LRTR)
Time Latitude Longitude Altitude Speed Heading
2026-04-22 17:39 44.56887 26.08865 321 ft 0 kts 173°
2026-04-22 18:04 44.56886 26.08865 321 ft 1 kts 174°
2026-04-22 18:04 44.56872 26.08867 320 ft 3 kts 174°
2026-04-22 18:05 44.56848 26.08860 322 ft 3 kts 231°
2026-04-22 18:05 44.56836 26.08810 322 ft 10 kts 264°
2026-04-22 18:05 44.56824 26.08669 322 ft 16 kts 263°
2026-04-22 18:05 44.56822 26.08578 322 ft 8 kts 291°
2026-04-22 18:06 44.56856 26.08557 322 ft 9 kts 354°
2026-04-22 18:06 44.56928 26.08548 323 ft 12 kts 355°
2026-04-22 18:06 44.57019 26.08536 323 ft 14 kts 354°
2026-04-22 18:06 44.57129 26.08519 323 ft 17 kts 354°
2026-04-22 18:07 44.57257 26.08500 321 ft 20 kts 353°
2026-04-22 18:07 44.57404 26.08481 322 ft 22 kts 355°
2026-04-22 18:07 44.57539 26.08460 323 ft 15 kts 353°
2026-04-22 18:07 44.57566 26.08456 323 ft 0 kts 354°
2026-04-22 18:08 44.57575 26.08454 323 ft 6 kts 354°
2026-04-22 18:08 44.57658 26.08480 323 ft 17 kts 60°
2026-04-22 18:08 44.57684 26.08741 321 ft 49 kts 83°
2026-04-22 18:08 44.57747 26.09562 322 ft 116 kts 84°
2026-04-22 18:09 44.57848 26.10927 323 ft 163 kts 83°
2026-04-22 18:09 44.57982 26.12632 652 ft 180 kts 83°
2026-04-22 18:09 44.58117 26.14398 1263 ft 184 kts 83°
2026-04-22 18:09 44.58249 26.16178 1956 ft 183 kts 83°
2026-04-22 18:10 44.58386 26.18025 2362 ft 201 kts 83°
2026-04-22 18:10 44.58609 26.20058 2673 ft 222 kts 68°
2026-04-22 18:10 44.59594 26.21738 2995 ft 232 kts 25°
2026-04-22 18:10 44.61178 26.22128 3436 ft 236 kts 343°
2026-04-22 18:11 44.62593 26.21058 4210 ft 232 kts 315°
2026-04-22 18:11 44.63732 26.19461 5040 ft 232 kts 309°
2026-04-22 18:11 44.64564 26.17455 5622 ft 247 kts 288°
2026-04-22 18:11 44.65160 26.15145 6446 ft 254 kts 288°
2026-04-22 18:12 44.65763 26.12795 7354 ft 258 kts 288°
2026-04-22 18:12 44.66381 26.10400 8238 ft 262 kts 289°
2026-04-22 18:12 44.67011 26.07979 9102 ft 266 kts 289°
2026-04-22 18:12 44.67654 26.05522 9943 ft 270 kts 289°
2026-04-22 18:13 44.68322 26.02979 10437 ft 288 kts 289°
2026-04-22 18:13 44.69036 26.00262 10921 ft 302 kts 289°
2026-04-22 18:13 44.69767 25.97472 11639 ft 307 kts 289°
2026-04-22 18:13 44.70509 25.94637 12380 ft 311 kts 289°
2026-04-22 18:14 44.71261 25.91768 13112 ft 315 kts 289°
2026-04-22 18:14 44.72023 25.88862 13817 ft 318 kts 289°
2026-04-22 18:14 44.72793 25.85928 14519 ft 322 kts 289°
2026-04-22 18:14 44.73571 25.82958 15185 ft 325 kts 289°
2026-04-22 18:15 44.74357 25.79953 15838 ft 329 kts 289°
2026-04-22 18:15 44.75148 25.76917 16449 ft 332 kts 289°
2026-04-22 18:15 44.75944 25.73849 17073 ft 336 kts 289°
2026-04-22 18:15 44.76746 25.70750 17682 ft 339 kts 289°
2026-04-22 18:16 44.77557 25.67616 18271 ft 342 kts 289°
2026-04-22 18:16 44.78374 25.64452 18882 ft 346 kts 289°
2026-04-22 18:16 44.79199 25.61253 19475 ft 349 kts 289°
2026-04-22 18:16 44.80032 25.58023 20058 ft 353 kts 289°
2026-04-22 18:17 44.80870 25.54769 20622 ft 356 kts 289°
2026-04-22 18:17 44.81716 25.51476 21149 ft 359 kts 289°
2026-04-22 18:17 44.82569 25.48163 21663 ft 362 kts 289°
2026-04-22 18:17 44.83433 25.44814 22155 ft 365 kts 289°
2026-04-22 18:18 44.84303 25.41442 22639 ft 368 kts 289°
2026-04-22 18:18 44.85177 25.38039 23120 ft 371 kts 289°
2026-04-22 18:18 44.86055 25.34604 23591 ft 374 kts 289°
2026-04-22 18:18 44.86938 25.31142 24083 ft 377 kts 289°
2026-04-22 18:19 44.87830 25.27651 24537 ft 380 kts 289°
2026-04-22 18:19 44.88727 25.24131 24982 ft 383 kts 289°
2026-04-22 18:19 44.89629 25.20586 25429 ft 385 kts 289°
2026-04-22 18:19 44.90535 25.17015 25852 ft 388 kts 289°
2026-04-22 18:20 44.91444 25.13410 26274 ft 391 kts 289°
2026-04-22 18:20 44.92358 25.09781 26684 ft 394 kts 289°
2026-04-22 18:20 44.93277 25.06128 27094 ft 396 kts 289°
2026-04-22 18:20 44.94202 25.02449 27491 ft 399 kts 289°
2026-04-22 18:21 44.95135 24.98745 27870 ft 402 kts 289°
2026-04-22 18:21 44.96070 24.95023 27982 ft 400 kts 289°
2026-04-22 18:21 44.96980 24.91406 28012 ft 383 kts 289°
2026-04-22 18:21 44.97857 24.87927 28010 ft 371 kts 289°
2026-04-22 18:22 44.98715 24.84512 28008 ft 368 kts 288°
2026-04-22 18:22 45.00406 24.77713 28012 ft 366 kts 288°
2026-04-22 18:23 45.02085 24.70925 28009 ft 366 kts 288°
2026-04-22 18:23 45.03772 24.64141 28010 ft 366 kts 288°
2026-04-22 18:24 45.06299 24.53945 28008 ft 367 kts 288°
2026-04-22 18:25 45.08808 24.43730 28012 ft 366 kts 288°
2026-04-22 18:25 45.10475 24.36916 28015 ft 366 kts 288°
2026-04-22 18:26 45.12975 24.26706 28017 ft 366 kts 288°
2026-04-22 18:26 45.14631 24.19893 28015 ft 366 kts 288°
2026-04-22 18:27 45.16281 24.13068 28017 ft 366 kts 288°
2026-04-22 18:27 45.17935 24.06244 28006 ft 367 kts 288°
2026-04-22 18:28 45.18762 24.02823 28000 ft 367 kts 288°
2026-04-22 18:28 45.19586 23.99403 28004 ft 367 kts 288°
2026-04-22 18:28 45.21230 23.92552 28002 ft 367 kts 288°
2026-04-22 18:29 45.22877 23.85683 27996 ft 368 kts 288°
2026-04-22 18:29 45.23701 23.82242 27997 ft 369 kts 288°
2026-04-22 18:29 45.24523 23.78800 27995 ft 369 kts 288°
2026-04-22 18:30 45.26985 23.68447 27995 ft 369 kts 288°
2026-04-22 18:30 45.27804 23.64984 27986 ft 370 kts 287°
2026-04-22 18:31 45.28622 23.61519 27777 ft 370 kts 288°
2026-04-22 18:31 45.29441 23.58052 27531 ft 371 kts 288°
2026-04-22 18:31 45.30261 23.54583 27296 ft 368 kts 288°
2026-04-22 18:31 45.31069 23.51161 26979 ft 363 kts 288°
2026-04-22 18:32 45.31868 23.47770 26603 ft 360 kts 287°
2026-04-22 18:32 45.32657 23.44407 26221 ft 357 kts 287°
2026-04-22 18:32 45.33437 23.41075 25837 ft 354 kts 287°
2026-04-22 18:32 45.34212 23.37767 25451 ft 351 kts 287°
2026-04-22 18:33 45.34977 23.34492 25052 ft 348 kts 287°
2026-04-22 18:33 45.35735 23.31240 24658 ft 345 kts 287°
2026-04-22 18:33 45.36485 23.28020 24261 ft 342 kts 287°
2026-04-22 18:33 45.37230 23.24821 23862 ft 340 kts 287°
2026-04-22 18:34 45.37971 23.21641 23467 ft 337 kts 287°
2026-04-22 18:34 45.38705 23.18483 23069 ft 335 kts 287°
2026-04-22 18:34 45.39433 23.15348 22683 ft 333 kts 287°
2026-04-22 18:34 45.40156 23.12226 22278 ft 331 kts 287°
2026-04-22 18:35 45.40875 23.09127 21880 ft 329 kts 287°
2026-04-22 18:35 45.41588 23.06039 21481 ft 327 kts 287°
2026-04-22 18:35 45.42296 23.02970 21092 ft 325 kts 287°
2026-04-22 18:35 45.42997 22.99924 20699 ft 323 kts 287°
2026-04-22 18:36 45.43695 22.96885 20313 ft 322 kts 287°
2026-04-22 18:36 45.44388 22.93859 19920 ft 321 kts 287°
2026-04-22 18:36 45.45079 22.90846 19537 ft 319 kts 287°
2026-04-22 18:36 45.45766 22.87850 19139 ft 317 kts 287°
2026-04-22 18:37 45.46449 22.84860 18752 ft 317 kts 287°
2026-04-22 18:37 45.47127 22.81879 18366 ft 316 kts 287°
2026-04-22 18:37 45.47576 22.79907 18108 ft 315 kts 287°
2026-04-22 18:37 45.48478 22.75951 17594 ft 313 kts 287°
2026-04-22 18:38 45.49150 22.73003 17211 ft 312 kts 287°
2026-04-22 18:38 45.49820 22.70065 16832 ft 310 kts 287°
2026-04-22 18:38 45.50482 22.67147 16450 ft 308 kts 287°
2026-04-22 18:39 45.51789 22.61354 15703 ft 305 kts 287°
2026-04-22 18:39 45.52439 22.58479 15336 ft 304 kts 287°
2026-04-22 18:39 45.53084 22.55618 14963 ft 302 kts 287°
2026-04-22 18:39 45.53724 22.52773 14595 ft 301 kts 287°
2026-04-22 18:40 45.54362 22.49937 14226 ft 299 kts 287°
2026-04-22 18:40 45.54997 22.47120 13862 ft 298 kts 287°
2026-04-22 18:40 45.55627 22.44316 13499 ft 296 kts 287°
2026-04-22 18:40 45.56251 22.41523 13137 ft 295 kts 286°
2026-04-22 18:41 45.56872 22.38740 12769 ft 294 kts 287°
2026-04-22 18:41 45.57490 22.35972 12404 ft 292 kts 287°
2026-04-22 18:41 45.58102 22.33223 12055 ft 290 kts 287°
2026-04-22 18:41 45.58714 22.30487 11685 ft 289 kts 287°
2026-04-22 18:42 45.59322 22.27761 11335 ft 288 kts 286°
2026-04-22 18:42 45.59925 22.25046 10970 ft 286 kts 286°
2026-04-22 18:42 45.60521 22.22358 10625 ft 284 kts 286°
2026-04-22 18:42 45.61118 22.19668 10327 ft 281 kts 286°
2026-04-22 18:43 45.61702 22.17029 10002 ft 279 kts 286°
2026-04-22 18:43 45.62280 22.14411 9696 ft 276 kts 286°
2026-04-22 18:43 45.62858 22.11800 9403 ft 273 kts 286°
2026-04-22 18:43 45.63429 22.09223 9067 ft 272 kts 286°
2026-04-22 18:44 45.63997 22.06648 8709 ft 271 kts 286°
2026-04-22 18:44 45.64559 22.04084 8381 ft 270 kts 286°
2026-04-22 18:44 45.65117 22.01535 8046 ft 268 kts 286°
2026-04-22 18:44 45.65673 21.99000 7716 ft 267 kts 286°
2026-04-22 18:45 45.66226 21.96479 7379 ft 265 kts 286°
2026-04-22 18:45 45.66777 21.93969 7041 ft 264 kts 286°
2026-04-22 18:45 45.67321 21.91472 6706 ft 262 kts 286°
2026-04-22 18:45 45.67861 21.88987 6380 ft 261 kts 286°
2026-04-22 18:46 45.68400 21.86515 6046 ft 260 kts 286°
2026-04-22 18:46 45.68938 21.84056 5711 ft 258 kts 286°
2026-04-22 18:46 45.69472 21.81612 5384 ft 257 kts 286°
2026-04-22 18:46 45.69825 21.79996 5159 ft 256 kts 286°
2026-04-22 18:47 45.70354 21.77572 4837 ft 255 kts 286°
2026-04-22 18:47 45.70878 21.75159 4496 ft 254 kts 286°
2026-04-22 18:47 45.71386 21.72812 4255 ft 238 kts 286°
2026-04-22 18:47 45.71857 21.70641 4138 ft 219 kts 286°
2026-04-22 18:48 45.72289 21.68653 4036 ft 200 kts 285°
2026-04-22 18:48 45.72682 21.66841 3949 ft 182 kts 285°
2026-04-22 18:48 45.73048 21.65156 3874 ft 175 kts 287°
2026-04-22 18:48 45.73431 21.63587 3796 ft 162 kts 288°
2026-04-22 18:49 45.73817 21.62087 3730 ft 160 kts 288°
2026-04-22 18:49 45.74197 21.60609 3671 ft 153 kts 288°
2026-04-22 18:49 45.74541 21.59258 3612 ft 137 kts 287°
2026-04-22 18:49 45.74853 21.58027 3486 ft 128 kts 287°
2026-04-22 18:50 45.75153 21.56846 3373 ft 125 kts 287°
2026-04-22 18:50 45.75448 21.55681 3199 ft 123 kts 287°
2026-04-22 18:50 45.75745 21.54512 3046 ft 123 kts 287°
2026-04-22 18:50 45.76040 21.53350 2875 ft 123 kts 287°
2026-04-22 18:51 45.76330 21.52207 2722 ft 121 kts 287°
2026-04-22 18:51 45.76617 21.51073 2559 ft 121 kts 287°
2026-04-22 18:51 45.76903 21.49946 2401 ft 120 kts 287°
2026-04-22 18:51 45.77187 21.48824 2240 ft 120 kts 287°
2026-04-22 18:52 45.77472 21.47701 2081 ft 120 kts 287°
2026-04-22 18:52 45.77755 21.46581 1923 ft 119 kts 288°
2026-04-22 18:52 45.78037 21.45468 1767 ft 119 kts 287°
2026-04-22 18:52 45.78319 21.44354 1606 ft 119 kts 288°
2026-04-22 18:53 45.78600 21.43241 1449 ft 119 kts 288°
2026-04-22 18:53 45.78881 21.42130 1291 ft 118 kts 287°
2026-04-22 18:53 45.79159 21.41026 1139 ft 118 kts 287°
2026-04-22 18:53 45.79439 21.39920 983 ft 118 kts 287°
2026-04-22 18:54 45.79718 21.38814 817 ft 118 kts 288°
2026-04-22 18:54 45.79997 21.37707 663 ft 118 kts 288°
2026-04-22 18:54 45.80277 21.36600 461 ft 117 kts 288°
2026-04-22 18:54 45.80550 21.35503 352 ft 113 kts 289°
2026-04-22 18:55 45.80741 21.34739 351 ft 40 kts 291°
2026-04-22 18:55 45.80812 21.34457 336 ft 34 kts 289°
2026-04-22 18:55 45.80896 21.34129 345 ft 37 kts 290°
2026-04-22 18:55 45.80997 21.33724 343 ft 49 kts 290°
2026-04-22 18:56 45.81124 21.33218 344 ft 59 kts 289°
2026-04-22 18:56 45.81269 21.32638 346 ft 59 kts 290°
2026-04-22 18:56 45.81377 21.32208 349 ft 17 kts 281°
2026-04-22 18:56 45.81310 21.32122 349 ft 0 kts 197°
2026-04-22 18:57 45.81305 21.32120 349 ft 3 kts 197°
2026-04-22 18:57 45.81278 21.32106 345 ft 6 kts 200°
2026-04-22 18:57 45.81231 21.32082 346 ft 9 kts 200°
2026-04-22 18:57 45.81171 21.32052 345 ft 8 kts 194°
2026-04-22 18:58 45.81125 21.32033 352 ft 3 kts 200°
2026-04-22 18:58 45.81104 21.32022 345 ft 1 kts 200°
2026-04-22 18:58 45.81103 21.32022 345 ft 0 kts 200°
2026-04-22 18:59 45.81097 21.32018 346 ft 4 kts 200°
2026-04-22 18:59 45.81094 21.32017 346 ft 0 kts 200°